Miscellaneous Local Product
Issued by NWS Hastings, NE

Home | Current Version | Previous Version | Text Only | Print | Product List | Glossary Off
Versions: 1 2 3 4 5 6 7 8 9 10 11 12 13 14 15 16 17 18 19 20 21 22 23 24 25 26 27 28 29 30 31 32 33 34 35 36 37 38 39 40 41 42 43 44 45 46 47 48 49 50

000
AXUS43 KGID 271902
MISGRI

GID CWA HOURLY WEATHER ROUNDUP
NATIONAL WEATHER SERVICE HASTINGS NE
200 PM CDT WED MAY 27 2015

NOTE: "FAIR" INDICATES FEW OR NO CLOUDS BELOW 12,000 FEET WITH NO
SIGNIFICANT WEATHER AND/OR OBSTRUCTIONS TO VISIBILITY.

...SOUTH CENTRAL NEBRASKA...

CITY           SKY/WX    TMP DP  RH WIND       PRES   REMARKS
GRAND ISLAND   MOSUNNY   79  43  27 S7        30.09S
HASTINGS       PTSUNNY   78  49  35 SE12G17   30.08F
KEARNEY        PTSUNNY   79  46  31 SE10      30.08F
ORD            MOSUNNY   78  45  30 S14G20    30.06F
YORK           MOSUNNY   79  45  29 CALM      30.09S
AURORA         MOSUNNY   78  43  28 S7        30.08F
LEXINGTON      PTSUNNY   75  54  47 S7        30.07F
HOLDREGE       PTSUNNY   74  48  39 S10       30.08F
HEBRON         MOSUNNY   80  40  24 S7        30.09S

...NEBRASKA PANHANDLE...

CITY           SKY/WX    TMP DP  RH WIND       PRES   REMARKS
CHADRON        MOSUNNY   71  53  52 S8        29.97F
ALLIANCE       MOSUNNY   71  55  56 S15G23    30.01F
SCOTTSBLUFF    MOSUNNY   70  50  49 SE5       30.00F
SIDNEY         MOSUNNY   70  57  63 SE9G23    30.05F

...WESTERN AND NORTH CENTRAL NEBRASKA...

CITY           SKY/WX    TMP DP  RH WIND       PRES   REMARKS
VALENTINE      CLOUDY    74  45  35 S18G30    30.04F
AINSWORTH      CLOUDY    74  49  40 S15       30.06F
ONEILL         PTSUNNY   78  49  35 S10       30.07S
BROKEN BOW     CLOUDY    76  49  38 S17G24    30.08F
IMPERIAL       MOSUNNY   72  57  59 SE17G28   30.04F
NORTH PLATTE   PTSUNNY   76  56  49 S17G25    30.05F
MCCOOK         CLOUDY    69  57  65 SE15      30.07F

...EASTERN NEBRASKA...

CITY           SKY/WX    TMP DP  RH WIND       PRES   REMARKS
NORFOLK        SUNNY     80  50  34 SE5       30.05F
SO SIOUX CITY  SUNNY     82  54  37 CALM      30.03F
TEKAMAH        SUNNY     84  51  31 S8        30.04F
COLUMBUS       SUNNY     81  46  30 E6        30.08F
ALBION         SUNNY     78  46  32 SW6       30.08S
OMAHA EPPLEY   MOSUNNY   82  49  31 SW6       30.06S
OFFUTT AFB     SUNNY     81  52  36 SW10      30.06S
MILLARD        SUNNY     81  50  34 SW6       30.06S
LINCOLN        SUNNY     81  48  31 S10       30.08F
NEBRASKA CITY  SUNNY     79  41  26 W3        30.09S
BEATRICE       SUNNY     79  49  34 S8        30.09S
FALLS CITY     SUNNY     81  52  36 S5        30.08F

...NORTHERN KANSAS...

CITY           SKY/WX    TMP DP  RH WIND       PRES   REMARKS
GOODLAND       MOSUNNY   76  58  53 S20G26    30.05F
HILL CITY      LGT RAIN  69  60  73 SE12      30.09F
NORTON         CLOUDY    72  54  53 SE10      30.09S
PHILLIPSBURG   PTSUNNY   77  55  47 SE7       30.10R
SMITH CENTER   SUNNY     77  55  47 SE13      30.09S
HAYS           CLOUDY    70  57  64 SE8       30.10F
RUSSELL        LGT RAIN  74  59  59 SE15      30.09R
CONCORDIA      MOSUNNY   79  51  37 S12       30.10S
SALINA         PTSUNNY   80  58  46 SE8       30.10S
TOPEKA         SUNNY     80  55  42 S7        30.09F



USA.gov is the U.S. government's official web portal to all federal, state and local government web resources and services.